Regional Weather Roundup
Issued by NWS Albany, NY

Home | Current Version | Previous Version | Graphics & Text | Print | Product List | Glossary Off
Versions: 1 2 3 4 5 6 7 8 9 10 11 12 13 14 15 16 17 18 19 20 21 22 23 24 25 26 27 28 29 30 31 32 33 34 35 36 37 38 39 40 41 42 43 44 45 46 47 48 49 50

000
ASUS41 KALY 262010
RWRALY

NEW YORK STATE HOURLY WEATHER ROUNDUP
NATIONAL WEATHER SERVICE ALBANY NY
400 PM EDT THU MAR 26 2015

NOTE: "FAIR" INDICATES FEW OR NO CLOUDS BELOW 12,000 FEET WITH NO
SIGNIFICANT WEATHER AND/OR NO OBSTRUCTIONS TO VISIBILITY.

NYZ032-033-038>043-046>054-057>066-NYZ062>081-262100-
EAST


CITY           SKY/WX    TMP DP  RH WIND       PRES   REMARKS
ALBANY         LGT RAIN  40  37  89 N9        29.70F VSB 3/4 WCI  34
GLENS FALLS    LGT RAIN  39  37  92 CALM      29.72S FOG
POUGHKEEPSIE   CLOUDY    48  45  89 NW5       29.67F FOG
NEWBURGH       CLOUDY    48  46  93 CALM      29.70S FOG
MONTGOMERY     CLOUDY    48  45  89 CALM      29.66F FOG
WHITE PLAINS   LGT RAIN  47  46  97 CALM      29.68F VSB 1/4
ISLIP          FOG       51  49  92 S17G25    29.70F VSB 1/8
NEW YORK CITY  CLOUDY    55  51  86 S5        29.68F
CENTRAL PARK   CLOUDY    53  50  89 CALM      29.71F FOG
$$

NYZ005>009-017-018-044>046-055-056-262100-
CENTRAL


CITY           SKY/WX    TMP DP  RH WIND       PRES   REMARKS
FULTON         LGT SNOW  34  31  88 NW3       29.76S VSB 1
SYRACUSE       DRIZZLE   36  34  92 CALM      29.75S FOG
ROME           RAIN      35  35 100 NW6       29.75F FOG     WCI  30
ELMIRA         LGT RAIN  38  38 100 CALM      29.72R FOG
BINGHAMTON     LGT RAIN  36  36 100 N10       29.67S VSB 3/4 WCI  28
MONTICELLO     CLOUDY    46  46 100 S9        29.66F VSB 1
$$

NYZ026>034-041>043-262100-
NORTH


CITY           SKY/WX    TMP DP  RH WIND       PRES   REMARKS
WATERTOWN      SNOW      35  32  88 CALM      29.76S VSB 1/2
FORT DRUM      NOT AVBL
MASSENA        LGT RAIN  35  32  88 SW8       29.76F WCI  29
SARANAC LAKE   SNOW      32  32 100 S3        29.68S VSB 1/2
PLATTSBURGH    LGT RAIN  39  38  96 NE3       29.74F FOG
$$

NYZ001>004-010>016-019>021-262100-
WEST


CITY           SKY/WX    TMP DP  RH WIND       PRES   REMARKS
NIAGARA FALLS  LGT RAIN  34  32  92 W6        29.77F FOG     WCI  29
BUFFALO        LGT SNOW  34  32  92 W6        29.78S FOG     WCI  29
DUNKIRK        LGT SNOW  33  32  96 W7        29.80R FOG     WCI  27
JAMESTOWN      CLOUDY    36  32  87 W9        29.74S WCI  29
WELLSVILLE     LGT RAIN  35  33  92 NW6       29.71S WCI  30
ROCHESTER      LGT SNOW  35  33  92 CALM      29.77S FOG
PENN YAN       LGT RAIN  36  34  92 CALM      29.74S FOG
$$

             KEY
       WCI = WIND CHILL INDEX
       VSB = VISIBILITY
       HX  = HEAT INDEX
$$



USA.gov is the U.S. government's official web portal to all federal, state and local government web resources and services.